7 * 24
多渠道服务支持
MOLNIYA 1-36 是俄罗斯一颗军用通信卫星,于1998年发射,运行在高椭圆轨道上,主要用于军事通信和战略指挥系统。该卫星属于“闪电”(Molniya)系列,设计寿命较短,已逐渐被更先进的“彩虹”(Gonets)和“格洛纳斯”(GLONASS)系统取代。MOLNIYA 1-36 在轨道上持续运行多年后,最终于2010年代末停止工作,目前处于失效状态,仍作为太空碎片存在于轨道中。
| 数据来源 | 国际轨道数据 |
| 星历时间: | 2025-12-14T17:24:33+0800 1天前 查看轨道信息 |
| 半长轴: | 26536.723km |
| 偏心率: | 0.6698668 |
| 轨道倾角: | 63.671° |
| 近地点辐角 | 282.687° |
| 升交点赤经 | 129.417° |
| 平近点角 | 14.937° |
| 近地点: | 2382.518km |
| 远地点: | 37934.658km |
| 周期: | 717.019分钟 |
| 每日圈数: | 2.008315 |